TimeCDT,TemperatureF,Dew PointF,Humidity,Sea Level PressureIn,VisibilityMPH,Wind Direction,Wind SpeedMPH,Gust SpeedMPH,PrecipitationIn,Events,Conditions,WindDirDegrees,DateUTC
12:15 AM,73.4,53.6,50,29.84,10.0,SSE,8.1,-,N/A,,Clear,150,2013-07-05 05:15:00
12:35 AM,73.4,55.4,53,29.84,10.0,SSE,8.1,-,N/A,,Clear,160,2013-07-05 05:35:00
12:55 AM,71.6,55.4,57,29.84,10.0,SSE,8.1,-,N/A,,Partly Cloudy,150,2013-07-05 05:55:00
1:15 AM,71.6,55.4,57,29.84,10.0,SSE,6.9,-,N/A,,Scattered Clouds,160,2013-07-05 06:15:00
1:35 AM,73.4,53.6,50,29.83,10.0,South,12.7,-,N/A,,Partly Cloudy,170,2013-07-05 06:35:00
1:55 AM,73.4,53.6,50,29.83,10.0,SSE,12.7,18.4,N/A,,Clear,160,2013-07-05 06:55:00
2:15 AM,73.4,53.6,50,29.82,10.0,South,17.3,23.0,N/A,,Clear,170,2013-07-05 07:15:00
2:35 AM,73.4,53.6,50,29.82,10.0,SSE,17.3,29.9,N/A,,Mostly Cloudy,160,2013-07-05 07:35:00
2:55 AM,71.6,55.4,57,29.81,9.0,South,24.2,40.3,N/A,,Mostly Cloudy,180,2013-07-05 07:55:00
3:15 AM,73.4,55.4,53,29.81,10.0,South,17.3,24.2,N/A,,Mostly Cloudy,190,2013-07-05 08:15:00
3:35 AM,73.4,55.4,53,29.81,10.0,South,19.6,24.2,N/A,,Mostly Cloudy,180,2013-07-05 08:35:00
3:55 AM,73.4,55.4,53,29.81,10.0,South,15.0,20.7,N/A,,Mostly Cloudy,190,2013-07-05 08:55:00
4:15 AM,75.2,55.4,50,29.80,10.0,South,17.3,23.0,N/A,,Scattered Clouds,190,2013-07-05 09:15:00
4:35 AM,75.2,55.4,50,29.80,10.0,South,18.4,25.3,N/A,,Clear,180,2013-07-05 09:35:00
4:55 AM,75.2,55.4,50,29.80,10.0,South,15.0,24.2,N/A,,Clear,170,2013-07-05 09:55:00
5:15 AM,73.4,55.4,53,29.80,10.0,South,16.1,21.9,N/A,,Clear,170,2013-07-05 10:15:00
5:35 AM,73.4,55.4,53,29.80,10.0,South,15.0,23.0,N/A,,Clear,170,2013-07-05 10:35:00
5:55 AM,73.4,55.4,53,29.80,10.0,South,15.0,19.6,N/A,,Scattered Clouds,170,2013-07-05 10:55:00
6:15 AM,71.6,55.4,57,29.81,10.0,South,11.5,20.7,N/A,,Scattered Clouds,190,2013-07-05 11:15:00
6:35 AM,71.6,55.4,57,29.81,10.0,South,10.4,-,N/A,,Clear,190,2013-07-05 11:35:00
6:55 AM,71.6,55.4,57,29.81,10.0,South,10.4,-,N/A,,Clear,190,2013-07-05 11:55:00
7:15 AM,71.6,55.4,57,29.81,10.0,South,9.2,-,N/A,,Clear,190,2013-07-05 12:15:00
7:35 AM,73.4,57.2,57,29.82,10.0,SSW,11.5,-,N/A,,Clear,210,2013-07-05 12:35:00
7:55 AM,73.4,57.2,57,29.82,10.0,South,11.5,-,N/A,,Clear,190,2013-07-05 12:55:00
8:15 AM,73.4,57.2,57,29.83,10.0,SW,8.1,-,N/A,,Clear,220,2013-07-05 13:15:00
8:35 AM,75.2,57.2,53,29.83,10.0,SSW,6.9,-,N/A,,Clear,210,2013-07-05 13:35:00
8:55 AM,75.2,59.0,57,29.82,10.0,South,9.2,-,N/A,,Clear,180,2013-07-05 13:55:00
9:15 AM,77.0,60.8,57,29.82,10.0,South,12.7,16.1,N/A,,Clear,180,2013-07-05 14:15:00
9:35 AM,78.8,59.0,51,29.82,10.0,SSW,13.8,17.3,N/A,,Clear,200,2013-07-05 14:35:00
9:55 AM,78.8,60.8,54,29.82,10.0,South,8.1,-,N/A,,Clear,190,2013-07-05 14:55:00
10:15 AM,78.8,60.8,54,29.82,10.0,South,16.1,19.6,N/A,,Clear,180,2013-07-05 15:15:00
10:35 AM,80.6,60.8,51,29.82,10.0,SSW,15.0,18.4,N/A,,Clear,200,2013-07-05 15:35:00
10:55 AM,82.4,59.0,45,29.82,10.0,SSW,16.1,19.6,N/A,,Clear,200,2013-07-05 15:55:00
11:15 AM,82.4,59.0,45,29.82,10.0,South,12.7,17.3,N/A,,Clear,180,2013-07-05 16:15:00
11:35 AM,82.4,60.8,48,29.81,10.0,South,13.8,-,N/A,,Clear,190,2013-07-05 16:35:00
11:55 AM,82.4,60.8,48,29.82,10.0,SSW,15.0,18.4,N/A,,Clear,210,2013-07-05 16:55:00
12:15 PM,82.4,60.8,48,29.81,10.0,South,12.7,-,N/A,,Clear,190,2013-07-05 17:15:00
12:35 PM,84.2,60.8,45,29.81,10.0,South,11.5,17.3,N/A,,Clear,180,2013-07-05 17:35:00
12:55 PM,84.2,62.6,48,29.81,10.0,South,13.8,17.3,N/A,,Clear,180,2013-07-05 17:55:00
1:15 PM,84.2,60.8,45,29.81,10.0,South,10.4,18.4,N/A,,Clear,170,2013-07-05 18:15:00
1:35 PM,84.2,62.6,48,29.80,10.0,South,12.7,21.9,N/A,,Clear,170,2013-07-05 18:35:00
1:55 PM,84.2,62.6,48,29.80,10.0,SSE,10.4,-,N/A,,Clear,160,2013-07-05 18:55:00
2:15 PM,84.2,62.6,48,29.80,10.0,South,11.5,-,N/A,,Clear,190,2013-07-05 19:15:00
2:35 PM,84.2,64.4,51,29.80,10.0,South,16.1,20.7,N/A,,Clear,170,2013-07-05 19:35:00
2:55 PM,84.2,62.6,48,29.79,10.0,SSE,13.8,-,N/A,,Clear,160,2013-07-05 19:55:00
3:15 PM,86.0,62.6,45,29.79,10.0,South,16.1,20.7,N/A,,Clear,170,2013-07-05 20:15:00
3:35 PM,84.2,64.4,51,29.79,10.0,South,15.0,-,N/A,,Clear,170,2013-07-05 20:35:00
3:55 PM,87.8,64.4,46,29.79,10.0,South,13.8,-,N/A,,Clear,170,2013-07-05 20:55:00
4:15 PM,86.0,64.4,48,29.78,10.0,SSE,16.1,21.9,N/A,,Clear,150,2013-07-05 21:15:00
4:35 PM,87.8,64.4,46,29.78,10.0,SSE,15.0,-,N/A,,Clear,160,2013-07-05 21:35:00
4:55 PM,86.0,66.2,51,29.78,10.0,South,15.0,19.6,N/A,,Clear,170,2013-07-05 21:55:00
5:15 PM,86.0,64.4,48,29.78,10.0,SSE,16.1,20.7,N/A,,Clear,160,2013-07-05 22:15:00
5:35 PM,86.0,64.4,48,29.78,10.0,SSE,12.7,-,N/A,,Clear,160,2013-07-05 22:35:00
5:55 PM,86.0,66.2,51,29.78,10.0,South,9.2,-,N/A,,Clear,170,2013-07-05 22:55:00
6:15 PM,87.8,64.4,46,29.78,10.0,South,15.0,-,N/A,,Clear,180,2013-07-05 23:15:00
6:35 PM,87.8,64.4,46,29.77,10.0,South,10.4,-,N/A,,Clear,170,2013-07-05 23:35:00
6:55 PM,86.0,64.4,48,29.78,10.0,South,12.7,20.7,N/A,,Clear,170,2013-07-05 23:55:00
7:15 PM,84.2,64.4,51,29.77,10.0,SSE,11.5,-,N/A,,Clear,160,2013-07-06 00:15:00
7:35 PM,84.2,62.6,48,29.78,10.0,South,10.4,-,N/A,,Clear,170,2013-07-06 00:35:00
7:55 PM,84.2,62.6,48,29.78,10.0,SSE,6.9,-,N/A,,Clear,150,2013-07-06 00:55:00
8:15 PM,82.4,64.4,54,29.77,10.0,ESE,6.9,-,N/A,,Clear,120,2013-07-06 01:15:00
8:35 PM,80.6,64.4,58,29.77,10.0,SE,9.2,-,N/A,,Clear,130,2013-07-06 01:35:00
8:55 PM,80.6,62.6,54,29.77,10.0,SE,8.1,-,N/A,,Clear,130,2013-07-06 01:55:00
9:15 PM,80.6,62.6,54,29.77,10.0,SE,8.1,-,N/A,,Clear,130,2013-07-06 02:15:00
9:35 PM,78.8,64.4,61,29.78,10.0,SE,6.9,-,N/A,,Clear,130,2013-07-06 02:35:00
9:55 PM,78.8,64.4,61,29.78,8.0,SE,9.2,-,N/A,,Clear,140,2013-07-06 02:55:00
10:15 PM,78.8,64.4,61,29.79,10.0,SSE,10.4,-,N/A,,Clear,160,2013-07-06 03:15:00
10:35 PM,78.8,64.4,61,29.79,10.0,SSE,10.4,-,N/A,,Clear,150,2013-07-06 03:35:00
10:55 PM,78.8,64.4,61,29.79,10.0,SSE,10.4,-,N/A,,Clear,150,2013-07-06 03:55:00
11:15 PM,78.8,62.6,57,29.78,10.0,SE,9.2,-,N/A,,Clear,140,2013-07-06 04:15:00
11:35 PM,78.8,62.6,57,29.78,10.0,SSE,11.5,-,N/A,,Clear,150,2013-07-06 04:35:00
11:55 PM,78.8,60.8,54,29.78,10.0,SSE,12.7,18.4,N/A,,Clear,150,2013-07-06 04:55:00